Time,TemperatureF,DewpointF,PressureIn,WindDirection,WindDirectionDegrees,WindSpeedMPH,WindSpeedGustMPH,Humidity,HourlyPrecipIn,Conditions,Clouds,dailyrainin,SoftwareType,DateUTC
2017-02-23 00:03:00,55.7,53.4,29.64,SW,234,5.0,10.5,92,0.00,,,0.00,VWS V15.00,2017-02-23 05:03:00,
2017-02-23 00:08:00,55.6,53.3,29.63,WSW,240,4.0,5.5,92,0.00,,,0.00,VWS V15.00,2017-02-23 05:08:00,
2017-02-23 00:13:00,55.5,53.2,29.63,SSW,200,6.0,9.5,92,0.00,,,0.00,VWS V15.00,2017-02-23 05:13:00,
2017-02-23 00:18:00,55.5,53.5,29.63,SW,229,5.0,9.5,93,0.00,,,0.00,VWS V15.00,2017-02-23 05:18:00,
2017-02-23 00:23:00,55.5,53.5,29.63,SW,234,7.0,9.5,93,0.00,,,0.00,VWS V15.00,2017-02-23 05:23:00,
2017-02-23 00:28:00,55.3,53.3,29.63,SW,230,5.0,9.5,93,0.00,,,0.00,VWS V15.00,2017-02-23 05:28:00,
2017-02-23 00:33:00,55.3,53.3,29.62,WSW,240,6.0,9.5,93,0.00,,,0.00,VWS V15.00,2017-02-23 05:33:00,
2017-02-23 00:38:00,55.2,53.2,29.62,SW,224,6.0,7.5,93,0.00,,,0.00,VWS V15.00,2017-02-23 05:38:00,
2017-02-23 00:43:00,55.2,53.5,29.62,SSW,194,5.0,8.5,94,0.00,,,0.00,VWS V15.00,2017-02-23 05:43:00,
2017-02-23 00:48:00,55.1,53.4,29.62,SE,146,4.0,8.5,94,0.00,,,0.00,VWS V15.00,2017-02-23 05:48:00,
2017-02-23 00:54:00,55.1,53.4,29.62,SW,216,6.0,8.5,94,0.00,,,0.00,VWS V15.00,2017-02-23 05:54:00,
2017-02-23 00:59:00,55.1,53.4,29.62,SW,226,5.0,9.5,94,0.00,,,0.00,VWS V15.00,2017-02-23 05:59:00,
2017-02-23 01:04:00,55.0,53.3,29.61,SSW,208,5.0,9.5,94,0.00,,,0.00,VWS V15.00,2017-02-23 06:04:00,
2017-02-23 01:09:00,55.0,53.3,29.62,SW,219,4.0,8.5,94,0.00,,,0.00,VWS V15.00,2017-02-23 06:09:00,
2017-02-23 01:14:00,55.1,53.7,29.62,SSW,207,6.0,8.5,95,0.00,,,0.00,VWS V15.00,2017-02-23 06:14:00,
2017-02-23 01:19:00,55.1,53.7,29.62,SW,215,4.0,9.5,95,0.00,,,0.00,VWS V15.00,2017-02-23 06:19:00,
2017-02-23 01:24:00,55.2,53.8,29.62,SW,234,6.0,12.5,95,0.00,,,0.00,VWS V15.00,2017-02-23 06:24:00,
2017-02-23 01:26:00,55.2,53.8,29.62,SSW,204,5.0,12.5,95,0.00,,,0.00,VWS V15.00,2017-02-23 06:26:00,
2017-02-23 01:31:00,55.3,53.9,29.62,SSW,207,7.0,12.5,95,0.00,,,0.00,VWS V15.00,2017-02-23 06:31:00,
2017-02-23 01:36:00,55.3,53.6,29.62,SSW,196,5.0,12.5,94,0.00,,,0.00,VWS V15.00,2017-02-23 06:36:00,
2017-02-23 01:41:00,55.3,53.6,29.61,WSW,255,4.0,8.5,94,0.00,,,0.00,VWS V15.00,2017-02-23 06:41:00,
2017-02-23 01:46:00,55.4,53.7,29.61,SW,232,6.0,9.5,94,0.00,,,0.00,VWS V15.00,2017-02-23 06:46:00,
2017-02-23 01:51:00,55.4,53.7,29.61,South,175,6.0,10.5,94,0.00,,,0.00,VWS V15.00,2017-02-23 06:51:00,
2017-02-23 01:56:00,55.5,53.8,29.61,SW,227,7.0,11.5,94,0.00,,,0.00,VWS V15.00,2017-02-23 06:56:00,
2017-02-23 02:01:00,55.5,53.8,29.60,South,178,7.0,11.5,94,0.00,,,0.00,VWS V15.00,2017-02-23 07:01:00,
2017-02-23 02:07:00,55.5,53.8,29.60,NW,318,5.0,11.5,94,0.00,,,0.00,VWS V15.00,2017-02-23 07:07:00,
2017-02-23 02:12:00,55.5,53.8,29.60,SW,218,4.0,11.5,94,0.00,,,0.00,VWS V15.00,2017-02-23 07:12:00,
2017-02-23 02:17:00,55.5,53.8,29.60,WSW,241,7.0,11.5,94,0.00,,,0.00,VWS V15.00,2017-02-23 07:17:00,
2017-02-23 02:22:00,55.5,53.8,29.60,SW,226,5.0,11.5,94,0.00,,,0.00,VWS V15.00,2017-02-23 07:22:00,
2017-02-23 02:27:00,55.5,54.1,29.60,South,190,6.0,13.5,95,0.00,,,0.00,VWS V15.00,2017-02-23 07:27:00,
2017-02-23 02:32:00,55.6,54.2,29.60,West,259,5.0,13.5,95,0.00,,,0.00,VWS V15.00,2017-02-23 07:32:00,
2017-02-23 02:37:00,55.6,54.2,29.60,SW,221,7.0,14.5,95,0.00,,,0.00,VWS V15.00,2017-02-23 07:37:00,
2017-02-23 02:42:00,55.7,54.3,29.60,SW,224,5.0,11.5,95,0.00,,,0.00,VWS V15.00,2017-02-23 07:42:00,
2017-02-23 02:47:00,55.7,54.3,29.60,SW,218,8.0,11.5,95,0.00,,,0.00,VWS V15.00,2017-02-23 07:47:00,
2017-02-23 02:52:00,55.7,54.3,29.60,SW,219,5.0,11.5,95,0.00,,,0.00,VWS V15.00,2017-02-23 07:52:00,
2017-02-23 02:57:00,55.7,54.3,29.60,SW,217,4.0,11.5,95,0.00,,,0.00,VWS V15.00,2017-02-23 07:57:00,
2017-02-23 02:58:00,55.7,54.3,29.60,SSW,203,7.0,11.5,95,0.00,,,0.00,VWS V15.00,2017-02-23 07:58:00,
2017-02-23 03:03:00,55.8,54.4,29.59,South,185,4.0,12.5,95,0.00,,,0.00,VWS V15.00,2017-02-23 08:03:00,
2017-02-23 03:08:00,55.8,54.4,29.59,South,176,6.0,13.5,95,0.00,,,0.00,VWS V15.00,2017-02-23 08:08:00,
2017-02-23 03:13:00,55.8,54.4,29.59,WSW,244,6.0,9.5,95,0.00,,,0.00,VWS V15.00,2017-02-23 08:13:00,
2017-02-23 03:18:00,55.8,54.4,29.60,SW,217,6.0,9.5,95,0.00,,,0.00,VWS V15.00,2017-02-23 08:18:00,
2017-02-23 03:23:00,55.7,54.3,29.60,SSW,211,6.0,9.5,95,0.00,,,0.00,VWS V15.00,2017-02-23 08:23:00,
2017-02-23 03:28:00,55.7,54.3,29.59,South,188,4.0,9.5,95,0.00,,,0.00,VWS V15.00,2017-02-23 08:28:00,
2017-02-23 03:33:00,55.6,54.2,29.59,SSW,202,6.0,12.5,95,0.00,,,0.00,VWS V15.00,2017-02-23 08:33:00,
2017-02-23 03:38:00,55.5,54.1,29.59,SSW,208,5.0,7.5,95,0.00,,,0.00,VWS V15.00,2017-02-23 08:38:00,
2017-02-23 03:43:00,55.5,54.1,29.58,SW,228,5.0,11.5,95,0.00,,,0.00,VWS V15.00,2017-02-23 08:43:00,
2017-02-23 03:48:00,55.3,53.9,29.59,SW,227,5.0,11.5,95,0.00,,,0.00,VWS V15.00,2017-02-23 08:48:00,
2017-02-23 03:54:00,55.3,53.9,29.59,SW,234,6.0,11.5,95,0.00,,,0.00,VWS V15.00,2017-02-23 08:54:00,
2017-02-23 03:59:00,55.2,53.8,29.59,SW,226,6.0,11.5,95,0.00,,,0.00,VWS V15.00,2017-02-23 08:59:00,
2017-02-23 04:04:00,55.2,53.8,29.59,SW,219,6.0,11.5,95,0.00,,,0.00,VWS V15.00,2017-02-23 09:04:00,
2017-02-23 04:09:00,55.2,53.8,29.59,WSW,244,4.0,7.5,95,0.00,,,0.00,VWS V15.00,2017-02-23 09:09:00,
2017-02-23 04:14:00,55.2,53.8,29.59,SW,221,6.0,8.5,95,0.00,,,0.00,VWS V15.00,2017-02-23 09:14:00,
2017-02-23 04:19:00,55.2,53.8,29.59,West,263,4.0,9.5,95,0.00,,,0.00,VWS V15.00,2017-02-23 09:19:00,
2017-02-23 04:24:00,55.2,53.8,29.59,SSW,209,4.0,9.5,95,0.00,,,0.00,VWS V15.00,2017-02-23 09:24:00,
2017-02-23 04:29:00,55.3,53.9,29.59,SW,223,3.0,11.5,95,0.00,,,0.00,VWS V15.00,2017-02-23 09:29:00,
2017-02-23 04:34:00,55.3,53.9,29.59,SW,221,4.0,11.5,95,0.00,,,0.00,VWS V15.00,2017-02-23 09:34:00,
2017-02-23 04:39:00,55.4,54.0,29.59,SW,229,6.0,7.5,95,0.00,,,0.00,VWS V15.00,2017-02-23 09:39:00,
2017-02-23 04:44:00,55.5,54.1,29.59,SSW,198,8.0,9.5,95,0.00,,,0.00,VWS V15.00,2017-02-23 09:44:00,
2017-02-23 04:49:00,55.7,54.3,29.59,SW,234,4.0,11.5,95,0.00,,,0.00,VWS V15.00,2017-02-23 09:49:00,
2017-02-23 04:54:00,55.9,54.2,29.59,SW,222,4.0,11.5,94,0.00,,,0.00,VWS V15.00,2017-02-23 09:54:00,
2017-02-23 04:59:00,56.0,54.3,29.59,SSW,197,4.0,11.5,94,0.00,,,0.00,VWS V15.00,2017-02-23 09:59:00,
2017-02-23 05:04:00,56.2,54.5,29.60,WSW,241,5.0,11.5,94,0.00,,,0.00,VWS V15.00,2017-02-23 10:04:00,
2017-02-23 05:10:00,56.3,54.3,29.60,SSW,206,4.0,7.5,93,0.00,,,0.00,VWS V15.00,2017-02-23 10:10:00,
2017-02-23 05:15:00,56.4,54.4,29.60,South,184,4.0,7.5,93,0.00,,,0.00,VWS V15.00,2017-02-23 10:15:00,
2017-02-23 05:20:00,56.5,54.5,29.60,SSW,200,5.0,7.5,93,0.00,,,0.00,VWS V15.00,2017-02-23 10:20:00,
2017-02-23 05:25:00,56.5,54.5,29.60,SSW,211,5.0,7.5,93,0.00,,,0.00,VWS V15.00,2017-02-23 10:25:00,
2017-02-23 05:30:00,56.5,54.2,29.60,SSW,192,4.0,7.5,92,0.00,,,0.00,VWS V15.00,2017-02-23 10:30:00,
2017-02-23 05:35:00,56.6,54.3,29.60,SSW,213,4.0,7.5,92,0.00,,,0.00,VWS V15.00,2017-02-23 10:35:00,
2017-02-23 05:40:00,56.4,54.1,29.60,SSW,211,3.0,6.5,92,0.00,,,0.00,VWS V15.00,2017-02-23 10:40:00,
2017-02-23 05:45:00,56.4,54.1,29.61,South,190,4.0,7.5,92,0.00,,,0.00,VWS V15.00,2017-02-23 10:45:00,
2017-02-23 05:50:00,56.2,53.9,29.60,SSW,203,4.0,7.5,92,0.00,,,0.00,VWS V15.00,2017-02-23 10:50:00,
2017-02-23 05:55:00,56.1,53.8,29.61,SSW,196,4.0,7.5,92,0.00,,,0.00,VWS V15.00,2017-02-23 10:55:00,
2017-02-23 06:00:00,56.0,54.0,29.61,SW,227,2.0,7.5,93,0.00,,,0.00,VWS V15.00,2017-02-23 11:00:00,
2017-02-23 06:05:00,55.9,53.9,29.61,SW,227,4.0,7.5,93,0.00,,,0.00,VWS V15.00,2017-02-23 11:05:00,
2017-02-23 06:10:00,55.9,53.9,29.61,SW,224,2.0,5.5,93,0.00,,,0.00,VWS V15.00,2017-02-23 11:10:00,
2017-02-23 06:15:00,55.8,53.8,29.61,SW,234,4.0,5.5,93,0.00,,,0.00,VWS V15.00,2017-02-23 11:15:00,
2017-02-23 06:20:00,55.7,53.7,29.61,SW,236,4.0,6.5,93,0.00,,,0.00,VWS V15.00,2017-02-23 11:20:00,
2017-02-23 06:26:00,55.7,53.7,29.61,SW,234,3.0,6.5,93,0.00,,,0.00,VWS V15.00,2017-02-23 11:26:00,
2017-02-23 06:31:00,55.5,53.5,29.61,West,259,2.0,6.5,93,0.00,,,0.00,VWS V15.00,2017-02-23 11:31:00,
2017-02-23 06:36:00,55.5,53.5,29.61,SW,234,3.0,6.5,93,0.00,,,0.00,VWS V15.00,2017-02-23 11:36:00,
2017-02-23 06:41:00,55.5,53.5,29.62,SW,227,2.0,5.5,93,0.00,,,0.00,VWS V15.00,2017-02-23 11:41:00,
2017-02-23 06:46:00,55.5,53.5,29.62,SSW,207,3.0,5.5,93,0.00,,,0.00,VWS V15.00,2017-02-23 11:46:00,
2017-02-23 06:51:00,55.4,53.4,29.62,SSW,203,3.0,6.5,93,0.00,,,0.00,VWS V15.00,2017-02-23 11:51:00,
2017-02-23 06:56:00,55.4,53.4,29.62,SW,232,3.0,6.5,93,0.00,,,0.00,VWS V15.00,2017-02-23 11:56:00,
2017-02-23 07:01:00,55.4,53.1,29.62,SW,234,3.0,6.5,92,0.00,,,0.00,VWS V15.00,2017-02-23 12:01:00,
2017-02-23 07:06:00,55.4,53.1,29.62,WSW,254,3.0,6.5,92,0.00,,,0.00,VWS V15.00,2017-02-23 12:06:00,
2017-02-23 07:11:00,55.5,53.2,29.62,SW,223,2.0,5.5,92,0.00,,,0.00,VWS V15.00,2017-02-23 12:11:00,
2017-02-23 07:16:00,55.5,52.9,29.62,SW,223,3.0,5.5,91,0.00,,,0.00,VWS V15.00,2017-02-23 12:16:00,
2017-02-23 07:21:00,55.4,52.5,29.62,SW,223,1.0,5.5,90,0.00,,,0.00,VWS V15.00,2017-02-23 12:21:00,
2017-02-23 07:26:00,55.4,52.5,29.62,West,269,1.0,6.5,90,0.00,,,0.00,VWS V15.00,2017-02-23 12:26:00,
2017-02-23 07:31:00,55.3,52.4,29.62,West,269,2.0,6.5,90,0.00,,,0.00,VWS V15.00,2017-02-23 12:31:00,
2017-02-23 07:37:00,55.2,52.3,29.62,South,190,3.0,6.5,90,0.00,,,0.00,VWS V15.00,2017-02-23 12:37:00,
2017-02-23 07:42:00,55.2,52.0,29.63,WNW,284,3.0,5.5,89,0.00,,,0.00,VWS V15.00,2017-02-23 12:42:00,
2017-02-23 07:47:00,55.1,51.9,29.63,SW,225,3.0,5.5,89,0.00,,,0.00,VWS V15.00,2017-02-23 12:47:00,
2017-02-23 07:52:00,55.2,51.7,29.63,WSW,242,2.0,5.5,88,0.00,,,0.00,VWS V15.00,2017-02-23 12:52:00,
2017-02-23 07:57:00,55.1,51.9,29.63,WSW,242,2.0,5.5,89,0.00,,,0.00,VWS V15.00,2017-02-23 12:57:00,
2017-02-23 08:02:00,55.0,51.8,29.64,SW,230,3.0,6.5,89,0.00,,,0.00,VWS V15.00,2017-02-23 13:02:00,
2017-02-23 08:07:00,55.0,51.5,29.64,SW,230,3.0,6.5,88,0.00,,,0.00,VWS V15.00,2017-02-23 13:07:00,
2017-02-23 08:12:00,54.9,51.4,29.65,SW,225,2.0,5.5,88,0.00,,,0.00,VWS V15.00,2017-02-23 13:12:00,
2017-02-23 08:17:00,54.8,51.3,29.65,SW,225,3.0,5.5,88,0.00,,,0.00,VWS V15.00,2017-02-23 13:17:00,
2017-02-23 08:22:00,54.7,51.5,29.65,SW,225,2.0,5.5,89,0.00,,,0.00,VWS V15.00,2017-02-23 13:22:00,
2017-02-23 08:27:00,54.8,51.6,29.65,SSW,206,3.0,6.5,89,0.00,,,0.00,VWS V15.00,2017-02-23 13:27:00,
2017-02-23 08:32:00,54.9,51.7,29.65,SSW,202,1.0,6.5,89,0.00,,,0.00,VWS V15.00,2017-02-23 13:32:00,
2017-02-23 08:37:00,55.1,51.9,29.65,WSW,244,1.0,6.5,89,0.00,,,0.00,VWS V15.00,2017-02-23 13:37:00,
2017-02-23 08:42:00,55.2,52.0,29.66,WSW,256,2.0,7.5,89,0.00,,,0.00,VWS V15.00,2017-02-23 13:42:00,
2017-02-23 08:47:00,55.5,52.0,29.66,WSW,245,5.0,7.5,88,0.00,,,0.00,VWS V15.00,2017-02-23 13:47:00,
2017-02-23 08:52:00,55.7,52.2,29.66,SW,229,3.0,7.5,88,0.00,,,0.00,VWS V15.00,2017-02-23 13:52:00,
2017-02-23 08:57:00,55.8,52.0,29.65,SW,219,4.0,7.5,87,0.00,,,0.00,VWS V15.00,2017-02-23 13:57:00,
2017-02-23 09:02:00,55.8,52.0,29.65,West,274,3.0,7.5,87,0.00,,,0.00,VWS V15.00,2017-02-23 14:02:00,
2017-02-23 09:08:00,55.9,51.8,29.66,NW,321,4.0,10.5,86,0.00,,,0.00,VWS V15.00,2017-02-23 14:08:00,
2017-02-23 09:13:00,56.1,51.3,29.66,South,186,3.0,9.5,84,0.00,,,0.00,VWS V15.00,2017-02-23 14:13:00,
2017-02-23 09:18:00,56.3,51.5,29.66,West,277,2.0,9.5,84,0.00,,,0.00,VWS V15.00,2017-02-23 14:18:00,
2017-02-23 09:23:00,56.4,51.3,29.66,WSW,250,3.0,9.5,83,0.00,,,0.00,VWS V15.00,2017-02-23 14:23:00,
2017-02-23 09:28:00,56.6,51.5,29.66,West,276,3.0,9.5,83,0.00,,,0.00,VWS V15.00,2017-02-23 14:28:00,
2017-02-23 09:33:00,56.9,51.5,29.66,WSW,253,2.0,9.5,82,0.00,,,0.00,VWS V15.00,2017-02-23 14:33:00,
2017-02-23 09:38:00,57.3,51.2,29.66,SW,215,3.0,4.5,80,0.00,,,0.00,VWS V15.00,2017-02-23 14:38:00,
2017-02-23 09:43:00,57.4,51.3,29.66,WSW,252,4.0,6.5,80,0.00,,,0.00,VWS V15.00,2017-02-23 14:43:00,
2017-02-23 09:48:00,57.6,51.5,29.66,WSW,245,2.0,6.5,80,0.00,,,0.00,VWS V15.00,2017-02-23 14:48:00,
2017-02-23 09:53:00,57.8,51.0,29.66,NW,315,7.0,8.5,78,0.00,,,0.00,VWS V15.00,2017-02-23 14:53:00,
2017-02-23 09:58:00,58.0,50.8,29.66,WSW,253,2.0,11.5,77,0.00,,,0.00,VWS V15.00,2017-02-23 14:58:00,
2017-02-23 10:03:00,58.2,51.0,29.67,SW,234,3.0,11.5,77,0.00,,,0.00,VWS V15.00,2017-02-23 15:03:00,
2017-02-23 10:08:00,58.3,50.1,29.67,WNW,291,3.0,5.5,74,0.00,,,0.00,VWS V15.00,2017-02-23 15:08:00,
2017-02-23 10:13:00,58.4,50.5,29.67,West,272,3.0,5.5,75,0.00,,,0.00,VWS V15.00,2017-02-23 15:13:00,
2017-02-23 10:18:00,58.6,50.3,29.67,NW,311,2.0,7.5,74,0.00,,,0.00,VWS V15.00,2017-02-23 15:18:00,
2017-02-23 10:23:00,58.7,49.3,29.67,West,273,1.0,7.5,71,0.00,,,0.00,VWS V15.00,2017-02-23 15:23:00,
2017-02-23 10:28:00,58.9,49.5,29.67,SW,219,4.0,7.5,71,0.00,,,0.00,VWS V15.00,2017-02-23 15:28:00,
2017-02-23 10:33:00,59.0,49.2,29.67,WNW,295,3.0,7.5,70,0.00,,,0.00,VWS V15.00,2017-02-23 15:33:00,
2017-02-23 10:38:00,59.2,49.4,29.67,WSW,256,3.0,6.5,70,0.00,,,0.00,VWS V15.00,2017-02-23 15:38:00,
2017-02-23 10:44:00,59.4,48.8,29.67,WSW,238,3.0,7.5,68,0.00,,,0.00,VWS V15.00,2017-02-23 15:44:00,
2017-02-23 10:49:00,59.7,49.1,29.67,WSW,248,3.0,7.5,68,0.00,,,0.00,VWS V15.00,2017-02-23 15:49:00,
2017-02-23 10:54:00,60.0,49.0,29.66,WSW,245,2.0,7.5,67,0.00,,,0.00,VWS V15.00,2017-02-23 15:54:00,
2017-02-23 10:59:00,60.5,49.5,29.67,NE,35,2.0,7.5,67,0.00,,,0.00,VWS V15.00,2017-02-23 15:59:00,
2017-02-23 11:04:00,60.7,48.5,29.67,SW,232,4.0,7.5,64,0.00,,,0.00,VWS V15.00,2017-02-23 16:04:00,
2017-02-23 11:09:00,60.7,48.0,29.68,West,266,4.0,6.5,63,0.00,,,0.00,VWS V15.00,2017-02-23 16:09:00,
2017-02-23 11:14:00,60.8,47.7,29.68,WSW,253,5.0,7.5,62,0.00,,,0.00,VWS V15.00,2017-02-23 16:14:00,
2017-02-23 11:19:00,60.9,47.8,29.68,WNW,285,3.0,7.5,62,0.00,,,0.00,VWS V15.00,2017-02-23 16:19:00,
2017-02-23 11:24:00,60.8,47.7,29.68,WNW,296,4.0,8.5,62,0.00,,,0.00,VWS V15.00,2017-02-23 16:24:00,
2017-02-23 11:29:00,60.6,47.5,29.69,NNW,342,5.0,8.5,62,0.00,,,0.00,VWS V15.00,2017-02-23 16:29:00,
2017-02-23 11:34:00,60.6,48.0,29.69,ENE,59,2.0,8.5,63,0.00,,,0.00,VWS V15.00,2017-02-23 16:34:00,
2017-02-23 11:39:00,61.1,48.4,29.69,West,259,2.0,5.5,63,0.00,,,0.00,VWS V15.00,2017-02-23 16:39:00,
2017-02-23 11:44:00,61.6,48.0,29.69,SSE,155,2.0,6.5,61,0.00,,,0.00,VWS V15.00,2017-02-23 16:44:00,
2017-02-23 11:49:00,62.0,47.5,29.69,WNW,284,3.0,8.5,59,0.00,,,0.00,VWS V15.00,2017-02-23 16:49:00,
2017-02-23 11:54:00,61.6,47.6,29.69,SW,223,5.0,8.5,60,0.00,,,0.00,VWS V15.00,2017-02-23 16:54:00,
2017-02-23 11:59:00,61.6,47.6,29.69,NNE,32,3.0,8.5,60,0.00,,,0.00,VWS V15.00,2017-02-23 16:59:00,
2017-02-23 12:04:00,62.0,47.5,29.69,WSW,241,3.0,8.5,59,0.00,,,0.00,VWS V15.00,2017-02-23 17:04:00,
2017-02-23 12:09:00,62.1,47.6,29.69,WNW,295,2.0,5.5,59,0.00,,,0.00,VWS V15.00,2017-02-23 17:09:00,
2017-02-23 12:14:00,62.4,47.5,29.70,SW,227,6.0,7.5,58,0.00,,,0.00,VWS V15.00,2017-02-23 17:14:00,
2017-02-23 12:20:00,62.5,47.1,29.70,West,281,3.0,8.5,57,0.00,,,0.00,VWS V15.00,2017-02-23 17:20:00,
2017-02-23 12:25:00,62.5,46.6,29.70,NW,319,3.0,8.5,56,0.00,,,0.00,VWS V15.00,2017-02-23 17:25:00,
2017-02-23 12:30:00,62.7,46.8,29.70,NE,40,2.0,8.5,56,0.00,,,0.00,VWS V15.00,2017-02-23 17:30:00,
2017-02-23 12:35:00,62.5,47.1,29.71,WSW,257,2.0,8.5,57,0.00,,,0.00,VWS V15.00,2017-02-23 17:35:00,
2017-02-23 12:40:00,62.7,46.8,29.70,NW,306,3.0,6.5,56,0.00,,,0.00,VWS V15.00,2017-02-23 17:40:00,
2017-02-23 12:45:00,62.3,44.5,29.70,WSW,238,3.0,8.5,52,0.00,,,0.00,VWS V15.00,2017-02-23 17:45:00,
2017-02-23 12:50:00,62.6,46.2,29.70,West,264,3.0,8.5,55,0.00,,,0.00,VWS V15.00,2017-02-23 17:50:00,
2017-02-23 12:55:00,62.8,44.9,29.70,NW,317,6.0,8.5,52,0.00,,,0.00,VWS V15.00,2017-02-23 17:55:00,
2017-02-23 13:00:00,62.1,43.8,29.70,WNW,300,3.0,9.5,51,0.00,,,0.00,VWS V15.00,2017-02-23 18:00:00,
2017-02-23 13:05:00,62.2,44.9,29.69,NW,313,3.0,9.5,53,0.00,,,0.00,VWS V15.00,2017-02-23 18:05:00,
2017-02-23 13:10:00,62.6,44.2,29.69,NW,311,2.0,5.5,51,0.00,,,0.00,VWS V15.00,2017-02-23 18:10:00,
2017-02-23 13:15:00,63.0,44.1,29.69,SW,235,3.0,7.5,50,0.00,,,0.00,VWS V15.00,2017-02-23 18:15:00,
2017-02-23 13:20:00,63.4,44.5,29.68,SSW,204,7.0,8.5,50,0.00,,,0.00,VWS V15.00,2017-02-23 18:20:00,
2017-02-23 13:25:00,63.9,44.9,29.68,ESE,123,3.0,8.5,50,0.00,,,0.00,VWS V15.00,2017-02-23 18:25:00,
2017-02-23 13:30:00,64.3,45.3,29.68,WSW,258,4.0,8.5,50,0.00,,,0.00,VWS V15.00,2017-02-23 18:30:00,
2017-02-23 13:35:00,64.4,44.8,29.67,WNW,300,3.0,8.5,49,0.00,,,0.00,VWS V15.00,2017-02-23 18:35:00,
2017-02-23 13:40:00,64.1,44.0,29.67,SSW,208,2.0,6.5,48,0.00,,,0.00,VWS V15.00,2017-02-23 18:40:00,
2017-02-23 13:45:00,64.2,44.1,29.67,West,270,3.0,6.5,48,0.00,,,0.00,VWS V15.00,2017-02-23 18:45:00,
2017-02-23 13:50:00,64.3,44.2,29.67,South,180,4.0,8.5,48,0.00,,,0.00,VWS V15.00,2017-02-23 18:50:00,